Showing default

CYGFM02, 41886

Orbit data source: Space-Track

CYGFM02, 41886 is an American payload satellite in LEO that was launched on Thu, 15 Dec 2016 UTC via a PEGASUS XL launch vehicle from the Pegasus Launch, Eastern Range Air Space (ERAS). Payload-class satellites include a variety of spacecraft equipped with specific instruments for various scientific and technological missions. These include communications satellites like Starlink; space stations such as the ISS; scientific satellites like the Hubble; Earth observation satellites from companies like Planet Labs, Umbra, and HawkEye 360; GPS; miniature CubeSats for education and research; and military/defense satellites.

Loading next visibility...
Identifier
41886, 2016-078C
Orbit
LEO
Last TLE update
6 hours ago
Origin
Manufacturer
SST-US
Mission
Extended mission Civil Science
Bus & Motor
CYGNSS, Unknown motor
Mass
29 kg wet, 29 kg dry
Launch date (UTC)
2016-12-15 (9 years ago)
Launch vehicle
PEGASUS XL
Launch site
Pegasus Launch, Eastern Range Air Space (ERAS)
Object type
Payload
Rocket body
Debris
Shape & HBR
Half Hex Cyl + 2 Pan, 1.7 m
Radar Cross Section
0.450 m², Medium (>0.1 m² and < 1m²)

Expand to show TLE details & history

TLE from 6 hours ago
0 CYGFM02
1 41886U 16078C   25189.07362595  .00011560  00000-0  24578-3 0  9993
2 41886  34.9459 329.8626 0009752 169.9722 190.1194 15.44084387475700
Epoch: 2025-07-08T01:46Z
TLE epoch observation values (Epoch: 2025-07-08T01:46:01.282Z)
Latitude
-0.00001°
Longitude
17.0834°
Altitude
439.5 km
Speed
7.647 km/s
True Right ascension
21h 59m 27s
True Declination
0° 00' 00"
Sunlit
Object was in full shadow at epoch
Visualization orbit readout
Latitude
27.91664°
Longitude
64.27772°
Altitude
436.529 km
Speed
7.653 km/s
Apparent Right ascension
04h 11m 11s
Apparent Declination
-7° 50' 19"
Sunlit
Object is in daylight
Visualization observer readout
Local Sidereal Time
20:18:12
Azimuth
77.329° E
Elevation
-26.556°
Doppler factor
1
Orbital elements
Apogee altitude
444.005 km
Perigee altitude
430.712 km
Semi-major axis
6,815.495 km
Eccentricity
0.00098
Inclination
34.9459°
RAAN
329.8626°
Arg. of periapsis
169.9722°
True anomaly
Unknown
Mean anomaly
190.1194°
Eccentric anomaly
Unknown
Mean motion
3.85742 °/min
Orbital period
93.33 mins
BSTAR
0.00024578
Loading maneuver chart data...
Loading SW <> Apogee altitude chart data...
Loading historical data...
Loading historical data...
Loading historical data...
Loading historical data...
Loading historical data...
Loading historical data...
Loading historical data...

CYGFM02 Visibility forecast

Observer location: undefined°, undefined°

Span
Click to sort rows by Start time (UTC) header in descending order
Start Az.
Max El. time (UTC)
Max El. Az.
Max El.
End time (UTC)
End Az.
4 mins2025-07-08 14:29:31.694Z206.556° SW2025-07-08 14:30:31.694Z177.621° S25.648°2025-07-08 14:33:31.694Z110.376° ESE
4 mins2025-07-08 16:07:31.694Z227.05° WSW2025-07-08 16:08:31.694Z195.88° SSW28.479°2025-07-08 16:11:31.694Z122.12° SE
|